[[{"header":{"parameterUnit":"m.s-1","parameterCategory":1,"la1":30.2991,"la2":30.254,"lo1":-89.0895,"lo2":-89.0444,"dy":0.0017,"dx":0.0017,"nx":28,"ny":28,"refTime":"2025-12-11T09:00:00:Z","depth":0,"parameterNumber":2,"parameterNumberName":"U-component_of_WINDS"},"data":[0,0,0,0,0,0,0,0,0,0,0,0,0,0,0,0,0,0,0,0,0,0,0,0,0,0,0,0,0,0,0,0,0,0,0,0,0,0,0,0,0,0,0,0,0,0,0,0,0,0,0,0,0,0,0,0,0,0,-0.4945,-0.4945,0,-0.4883,-0.4882,-0.4881,-0.4833,-0.4833,-0.4832,-0.4832,-0.4766,-0.4765,-0.4763,0,0,0,0,0,0,0,0,0,0,0,0,0,-0.5021,-0.502,-0.4945,-0.4945,-0.4944,-0.4883,-0.4882,-0.4881,-0.4833,-0.4833,-0.4832,-0.4832,-0.4766,-0.4765,-0.4763,0,0,0,0,0,0,0,0,0,0,0,0,0,-0.4976,-0.5019,-0.4945,-0.4913,-0.4909,-0.4883,-0.4882,-0.4881,-0.4833,-0.4833,-0.4832,-0.4832,-0.4767,-0.4765,-0.4763,-0.4764,0,0,-0.4757,-0.4756,0,0,0,0,0,0,0,0,-0.4979,-0.4973,-0.4918,-0.4915,-0.4911,-0.4865,-0.4884,-0.4842,-0.4834,-0.4862,-0.4832,-0.4831,-0.4799,-0.4795,-0.4784,-0.4761,-0.4758,-0.4757,-0.4755,-0.4755,-0.4754,0,0,0,0,0,0,0,-0.4982,-0.4976,-0.492,-0.4917,-0.4913,-0.49,-0.4893,-0.4876,-0.4835,-0.486,-0.4856,-0.4849,-0.4797,-0.4786,-0.4782,-0.4757,-0.4757,-0.4755,-0.4754,-0.4753,-0.4729,-0.4729,0,0,0,0,0,0,-0.499,-0.4979,-0.4922,-0.4919,-0.4944,-0.4899,-0.4891,-0.488,-0.4835,-0.4828,-0.485,-0.4847,-0.479,-0.4785,-0.478,-0.4776,-0.4755,-0.4753,-0.4751,-0.4728,-0.4729,-0.473,0,0,0,0,0,0,-0.4992,-0.4986,-0.4925,-0.4948,-0.4939,-0.4899,-0.4887,-0.488,-0.4869,-0.4828,-0.482,-0.4847,-0.4789,-0.4783,-0.4768,-0.4774,-0.4752,-0.475,-0.4728,-0.4728,-0.4729,-0.4771,0,0,0,0,0,0,-0.4995,-0.4987,-0.4987,-0.4948,-0.4938,-0.4915,-0.4887,-0.4879,-0.4866,-0.4861,-0.4823,-0.4816,-0.4788,-0.4771,-0.4766,-0.477,-0.4748,-0.4727,-0.4728,-0.4729,-0.4769,-0.4773,-0.4777,0,0,0,0,0,-0.4998,-0.5002,-0.4988,-0.4981,-0.4938,-0.4915,-0.491,-0.4879,-0.4866,-0.4866,-0.484,-0.4817,-0.4774,-0.477,-0.4764,-0.4768,-0.4726,-0.4728,-0.4729,-0.4767,-0.4772,-0.4776,0,0,0,0,0,0,-0.5043,-0.4996,-0.498,-0.4972,-0.4948,-0.4907,-0.4906,-0.4885,-0.4864,-0.4861,-0.4823,-0.4815,-0.4804,-0.4784,-0.4781,-0.4765,-0.4747,-0.4747,-0.4778,-0.4783,-0.4787,-0.4791,-0.4747,0,0,0,0,0,-0.5052,-0.5038,-0.4998,-0.4994,-0.4983,-0.4947,-0.4936,-0.4914,-0.4888,-0.4877,-0.485,-0.4824,-0.4805,-0.4793,-0.4773,-0.4766,-0.4756,-0.4765,-0.4769,-0.4773,-0.4773,-0.4766,-0.4769,-0.4734,-0.4734,-0.4734,0,0,-0.507,-0.5043,-0.5036,-0.5002,-0.4981,-0.4967,-0.4939,-0.4925,-0.4914,-0.4875,-0.4859,-0.4838,-0.4807,-0.4796,-0.4789,-0.4779,-0.4781,-0.4774,-0.4777,-0.4776,-0.4768,-0.4771,-0.4774,-0.4735,-0.4734,-0.4734,0,0,-0.5096,-0.5075,-0.5068,-0.5048,-0.5016,-0.4992,-0.4991,-0.4953,-0.4938,-0.4921,-0.4892,-0.4877,-0.4845,-0.4824,-0.4809,-0.4825,-0.4803,-0.482,-0.484,-0.4834,-0.4836,-0.4839,-0.4843,-0.4845,-0.482,-0.482,-0.482,0,-0.5122,-0.51,-0.5068,-0.5056,-0.5041,-0.5006,-0.4998,-0.498,-0.4943,-0.4933,-0.4923,-0.4881,-0.4858,-0.484,-0.4844,-0.4833,-0.4829,-0.4824,-0.4839,-0.4841,-0.4842,-0.4846,-0.4848,-0.4823,-0.4822,-0.4822,-0.4822,0,-0.5134,-0.5119,-0.5117,-0.5083,-0.5068,-0.5059,-0.5024,-0.5013,-0.4992,-0.4969,-0.4951,-0.4922,-0.4895,-0.4889,-0.4869,-0.4868,-0.4863,-0.4846,-0.4827,-0.4848,-0.4851,-0.4853,-0.4826,-0.4825,-0.4824,-0.4824,0,0,-0.5186,-0.5134,-0.5134,-0.5117,-0.5079,-0.5066,-0.5055,-0.5028,-0.5019,-0.4995,-0.4983,-0.4956,-0.494,-0.4923,-0.49,-0.4895,-0.4908,-0.4878,-0.4877,-0.4883,-0.4903,-0.4915,-0.4917,-0.4893,-0.4893,-0.4893,-0.4905,0,-0.5205,-0.5182,-0.5152,-0.514,-0.5124,-0.509,-0.5079,-0.5055,-0.5032,-0.5015,-0.499,-0.4971,-0.4952,-0.4941,-0.4935,-0.4908,-0.4911,-0.4906,-0.488,-0.488,-0.4888,-0.4919,-0.4932,-0.4945,-0.4906,-0.4906,-0.4907,0,-0.5224,-0.5202,-0.5187,-0.515,-0.5142,-0.5133,-0.5106,-0.5091,-0.5061,-0.5045,-0.5026,-0.5001,-0.4985,-0.4969,-0.4946,-0.4944,-0.4931,-0.4916,-0.4916,-0.4911,-0.4894,-0.4914,-0.4948,-0.495,-0.4908,-0.4908,-0.4908,0,-0.5262,-0.5228,-0.5215,-0.5202,-0.5158,-0.5152,-0.5134,-0.5104,-0.5089,-0.5065,-0.5055,-0.503,-0.5016,-0.4996,-0.4964,-0.4955,-0.4944,-0.4925,-0.4929,-0.493,-0.4927,-0.4928,-0.4958,-0.4921,-0.4921,-0.4921,-0.4921,0,-0.5286,-0.5278,-0.5231,-0.5223,-0.5213,-0.5178,-0.5168,-0.5146,-0.512,-0.5106,-0.5075,-0.5062,-0.5021,-0.5003,-0.4978,-0.4962,-0.4956,-0.4942,-0.4935,-0.4944,-0.4946,-0.4934,-0.4932,-0.4922,-0.4922,-0.4922,-0.4922,0,-0.5326,-0.5295,-0.5278,-0.5237,-0.5227,-0.5221,-0.5186,-0.5176,-0.5151,-0.5134,-0.5128,-0.5089,-0.5066,-0.5033,-0.5,-0.4983,-0.497,-0.496,-0.498,-0.4976,-0.4981,-0.498,-0.5004,-0.5005,-0.4969,-0.497,-0.497,0,-0.5343,-0.5336,-0.5295,-0.5283,-0.5265,-0.5248,-0.5233,-0.5198,-0.5183,-0.5149,-0.5142,-0.5117,-0.5095,-0.506,-0.5028,-0.5003,-0.4991,-0.5001,-0.4987,-0.4995,-0.4989,-0.4989,-0.4988,-0.5004,-0.5005,-0.5005,-0.5005,0,-0.5375,-0.536,-0.534,-0.5314,-0.5297,-0.5275,-0.5251,-0.5243,-0.5203,-0.5188,-0.5165,-0.5148,-0.5114,-0.5089,-0.5058,-0.5038,-0.5014,-0.501,-0.5009,-0.5018,-0.5029,-0.5022,-0.4988,-0.501,-0.5009,-0.5009,-0.5009,-0.5009,-0.5403,-0.5395,-0.5364,-0.5342,-0.5321,-0.5299,-0.5287,-0.5261,-0.5241,-0.5211,-0.5192,-0.5169,-0.5138,-0.5095,-0.5075,-0.5056,-0.5046,-0.5046,-0.5045,-0.5045,-0.5048,-0.5034,-0.5051,-0.505,-0.505,-0.505,-0.505,0,-0.5433,-0.5411,-0.5391,-0.5359,-0.5342,-0.5322,-0.5294,-0.5281,-0.5261,-0.5235,-0.5214,-0.5186,-0.5161,-0.5127,-0.5099,-0.509,-0.5079,-0.5084,-0.5084,-0.5079,-0.5059,-0.5061,-0.5094,-0.5094,-0.5094,-0.5094,-0.5094,-0.5094,-0.5446,-0.543,-0.5411,-0.5384,-0.5362,-0.5339,-0.5325,-0.5304,-0.5283,-0.5253,-0.5233,-0.5211,-0.5181,-0.5151,-0.5127,-0.5117,-0.5108,-0.5116,-0.5103,-0.5085,-0.5081,-0.5077,-0.5079,-0.5115,-0.5115,-0.5125,-0.5125,-0.5125]},{"header":{"parameterUnit":"m.s-1","parameterCategory":1,"la1":30.2991,"la2":30.254,"lo1":-89.0895,"lo2":-89.0444,"dy":0.0017,"dx":0.0017,"nx":28,"ny":28,"refTime":"2025-12-11T09:00:00:Z","depth":0,"parameterNumber":3,"parameterNumberName":"V-component_of_WINDS"},"data":[0,0,0,0,0,0,0,0,0,0,0,0,0,0,0,0,0,0,0,0,0,0,0,0,0,0,0,0,0,0,0,0,0,0,0,0,0,0,0,0,0,0,0,0,0,0,0,0,0,0,0,0,0,0,0,0,0,0,1.5254,1.5254,0,1.5217,1.5216,1.5216,1.5208,1.5208,1.5209,1.5209,1.517,1.5168,1.5167,0,0,0,0,0,0,0,0,0,0,0,0,0,1.5322,1.532,1.5254,1.5254,1.5253,1.5217,1.5216,1.5216,1.5208,1.5208,1.5209,1.5209,1.517,1.5169,1.5167,0,0,0,0,0,0,0,0,0,0,0,0,0,1.5289,1.532,1.5254,1.5245,1.5244,1.5217,1.5216,1.5215,1.5208,1.5208,1.5209,1.5209,1.5171,1.5169,1.5167,1.5146,0,0,1.5161,1.516,0,0,0,0,0,0,0,0,1.5291,1.5286,1.5247,1.5246,1.5244,1.5217,1.5225,1.5192,1.5208,1.5222,1.5209,1.5209,1.5185,1.5182,1.5174,1.5144,1.5142,1.5161,1.5159,1.5159,1.5158,0,0,0,0,0,0,0,1.5293,1.5288,1.5239,1.5247,1.5245,1.5243,1.5239,1.5219,1.5201,1.522,1.522,1.5215,1.5185,1.5176,1.5173,1.5142,1.5161,1.5159,1.5158,1.5157,1.5096,1.5095,0,0,0,0,0,0,1.5297,1.529,1.5241,1.5238,1.5269,1.5242,1.5237,1.5226,1.5202,1.5198,1.5215,1.5215,1.5179,1.5175,1.5172,1.5147,1.5159,1.5157,1.5156,1.5096,1.5096,1.5095,0,0,0,0,0,0,1.5298,1.5292,1.5242,1.5264,1.5257,1.524,1.5227,1.5225,1.5216,1.5198,1.5194,1.5209,1.5179,1.5174,1.5153,1.5146,1.5156,1.5154,1.5097,1.5096,1.5095,1.5097,0,0,0,0,0,0,1.53,1.5293,1.5284,1.5264,1.5256,1.5224,1.5227,1.5224,1.5213,1.5212,1.5191,1.5188,1.5179,1.5156,1.5151,1.5143,1.5153,1.5097,1.5096,1.5096,1.5097,1.5096,1.5095,0,0,0,0,0,1.5303,1.5286,1.5284,1.5278,1.5245,1.5223,1.5219,1.5209,1.5212,1.5204,1.5192,1.5189,1.5147,1.5154,1.5148,1.5139,1.5098,1.5097,1.5096,1.5098,1.5097,1.5095,0,0,0,0,0,0,1.5305,1.5283,1.528,1.5256,1.5242,1.5222,1.5211,1.5207,1.5191,1.5192,1.518,1.5176,1.5155,1.5145,1.5153,1.5119,1.5123,1.5121,1.5126,1.5125,1.5124,1.5127,1.5151,0,0,0,0,0,1.5303,1.5286,1.5268,1.5249,1.5242,1.5228,1.5218,1.5211,1.5196,1.5189,1.5176,1.5161,1.5145,1.5135,1.5119,1.5096,1.5092,1.5088,1.5087,1.5086,1.5084,1.5074,1.5072,1.5092,1.5092,1.5092,0,0,1.5297,1.5283,1.5274,1.5249,1.5237,1.5221,1.5222,1.5205,1.5193,1.5187,1.5166,1.5156,1.5139,1.5118,1.5108,1.5109,1.5078,1.5085,1.5085,1.5083,1.5073,1.5071,1.5069,1.5091,1.5091,1.5091,0,0,1.528,1.5268,1.5251,1.5239,1.5222,1.5213,1.5209,1.5191,1.5184,1.5163,1.5159,1.5145,1.5117,1.5105,1.5096,1.5078,1.5075,1.5073,1.5068,1.5058,1.5056,1.5055,1.5049,1.5047,1.5071,1.5071,1.5071,0,1.5276,1.5252,1.5242,1.5226,1.5216,1.5211,1.5194,1.5184,1.5161,1.5155,1.5157,1.5123,1.5111,1.5088,1.5084,1.5076,1.5072,1.5075,1.5057,1.5055,1.5054,1.5049,1.5046,1.5071,1.5071,1.5071,1.5071,0,1.5248,1.5232,1.522,1.52,1.5189,1.5173,1.5162,1.5152,1.5147,1.5139,1.5119,1.5105,1.5087,1.5081,1.5076,1.5058,1.5059,1.5059,1.5062,1.5052,1.5047,1.5045,1.5071,1.5071,1.5071,1.5071,0,0,1.5229,1.5206,1.5202,1.5194,1.5176,1.5163,1.5147,1.513,1.5122,1.5108,1.5095,1.5073,1.5074,1.5063,1.5057,1.5048,1.5037,1.505,1.5049,1.5048,1.5017,1.5018,1.5015,1.5035,1.5035,1.5034,1.5019,0,1.521,1.5182,1.5174,1.5151,1.5136,1.5133,1.5119,1.5107,1.5099,1.5087,1.5078,1.5063,1.5064,1.5058,1.505,1.504,1.503,1.5041,1.5024,1.5023,1.5028,1.5012,1.5012,1.4998,1.5017,1.5017,1.5016,0,1.5183,1.517,1.5145,1.5131,1.5124,1.5112,1.5098,1.5085,1.5072,1.5067,1.5057,1.5053,1.5037,1.5042,1.5022,1.5029,1.5022,1.5017,1.5016,1.5014,1.5019,1.501,1.4994,1.4992,1.5013,1.5013,1.5013,0,1.5173,1.5148,1.5131,1.5124,1.5107,1.5099,1.5091,1.5079,1.507,1.5057,1.5051,1.5037,1.5029,1.5018,1.5011,1.5015,1.4991,1.4995,1.4987,1.4988,1.4982,1.4982,1.4964,1.4977,1.4977,1.4977,1.4978,0,1.5152,1.5137,1.5126,1.5116,1.51,1.5092,1.5077,1.5069,1.5059,1.5047,1.5043,1.5032,1.5023,1.5011,1.5005,1.499,1.4986,1.4982,1.4981,1.4983,1.4983,1.4977,1.4978,1.4977,1.4977,1.4977,1.4977,0,1.5137,1.5129,1.511,1.5096,1.5093,1.5082,1.507,1.506,1.5053,1.5039,1.5035,1.5024,1.5011,1.5002,1.4985,1.4981,1.4964,1.4963,1.4969,1.4968,1.4961,1.4962,1.4939,1.4936,1.4951,1.4951,1.4951,0,1.5124,1.5113,1.5099,1.5091,1.5084,1.5071,1.5063,1.5056,1.5047,1.5033,1.5025,1.5012,1.5,1.4979,1.497,1.4957,1.4955,1.4948,1.4953,1.4956,1.4956,1.4957,1.4956,1.4947,1.4947,1.4947,1.4947,0,1.5103,1.51,1.5088,1.5076,1.5066,1.5055,1.5045,1.5039,1.5031,1.5021,1.5008,1.4999,1.4982,1.4969,1.4956,1.4949,1.4947,1.4946,1.4943,1.4945,1.4949,1.4947,1.4967,1.4946,1.4946,1.4946,1.4946,1.4946,1.5089,1.508,1.5069,1.5056,1.5048,1.5039,1.503,1.5023,1.5012,1.4998,1.4995,1.4981,1.497,1.4952,1.4945,1.4935,1.4936,1.4932,1.4931,1.4931,1.4931,1.4951,1.4932,1.4932,1.4932,1.4932,1.4932,0,1.5068,1.5062,1.505,1.5037,1.5027,1.5027,1.5017,1.5009,1.4997,1.4987,1.4977,1.4962,1.495,1.4941,1.4929,1.4923,1.4922,1.492,1.492,1.4919,1.493,1.4934,1.4921,1.4921,1.4921,1.4921,1.4921,1.4921,1.5056,1.5041,1.5038,1.5019,1.5013,1.5,1.4994,1.4986,1.4979,1.4963,1.4953,1.4948,1.4939,1.4927,1.4916,1.4914,1.491,1.4908,1.4906,1.4917,1.4918,1.4919,1.4922,1.4907,1.4907,1.4895,1.4895,1.4895]}]]